Hoosier Classic - Trainer 5 - 10 Miles

Station: Old TSC - T Race

Distance: 10 Miles    

Release: 12-Aug-2017 09:05

Weather Release:    Arrival:

Wind at Release:     Wind at Arrival:

Temp at Release: °    Temp at Arrival: °

Lofts: 340

Birds: 1652

Clocked: 1574

Good Luck to Everyone!
Drops Pos Breeder Pigeon Name Color Sex Ent Arrival Speed To Win Eligible Op 1Op 2
1 Feng Lin - GA 0027-AU17-YAU BB C 1 09:20:30.70 1134.630 00:00:00 Yes
2 Warren Loft - NE 0015-AU17-WARR BBWF H 1 09:20:58.20 1102.066 00:00:28 Yes
3 The X-Loft - IN 0033-AU17-XLOF BB C 1 09:21:13.60 1084.634 00:00:43 Yes
4 Eastern Pearl Loft - VA 0272-AU17-EPL 🈚️量 272 BCH C 1 09:21:50.50 1045.027 00:01:20 Yes
5 Speed Loft - MN 0514-AU17-ROYA Free Fear DCH H 1 09:22:21.10 1014.312 00:01:50 Yes
6 Patrick Kwan - CA 0710-AU17-KWAN BB C 1 09:23:11.50 967.476 00:02:41 Yes
7 G & L Loft - OR 2323-AU17-WPC BSP C 1 09:23:51.60 933.192 00:03:21 Yes
8 A P C Loft - TX 17055-AU17-APC BB C 1 09:24:07.40 920.342 00:03:37 Yes
9 T B Brothers Loft - MS 4415-AU17-VK BB H 1 09:24:31.60 901.332 00:04:01 Yes
10 Andy Skwiat - IN 0006-AU17-ANDY BB H 1 09:24:35.90 898.036 00:04:05 Yes
11 Rpm Syndicate - ON 0103-IF17-BUFF BB C 1 09:25:08.60 873.738 00:04:38 Yes
12 Haslem-Stevens - UT 7904-AU17-CDR BB C 1 09:26:09.70 831.693 00:05:39 Yes
13 Big Andy / Mike Cortes - FL 0092-AU17-RENE DCH H 1 09:26:33.70 816.263 00:06:03 Yes
14 Nanez Family Lofts - WI 4113-AU17-NFL BB H 1 09:26:38.60 813.183 00:06:08 Yes
15 Greek Connection - SC 0330-AU17-GREE 529 BWF H 1 09:27:19.60 788.295 00:06:49 Yes
16 H & H Loft - TX 6922-AU17-VK BB H 1 09:27:47.60 772.156 00:07:17 Yes
17 C & K Loft - FL 0818-AU17-KCHE BCH H 1 09:28:02.90 763.613 00:07:32 Yes
18 Debbie Ganus - IN 0701-AU17-GFL CHWF H 1 09:28:14.80 757.098 00:07:44 Yes
19 Alonso Loft - FL 0517-AU17-ALON BB H 1 09:28:35.80 745.868 00:08:05 Yes
20 Team Sandy - IN 0013-AU17-ANDY BLSP H 1 09:28:57.80 734.455 00:08:27 Yes
21 Schillings - IN 0856-AU17-BFS SILV C 1 09:29:44.00 711.590 00:09:13 Yes
22 Elton Dinga - TX 12049-AU17-AA Vercammen x Jansen DCH C 1 09:30:13.20 697.859 00:09:42 Yes
23 Venn Family Loft - WY 1706-AU17-VENN CHWF H 1 09:30:14.50 697.260 00:09:44 Yes
24 Book & Van Wingerden - AZ 7000-AU17-BOOK BB H 1 09:30:41.00 685.269 00:10:10 Yes
25 Ron Brooks - AR 1737-AU17-REB BCH H 1 09:30:48.50 681.950 00:10:18 Yes
26 C L & Patty Gage - TX 0695-AU17-DEN DCH C 1 09:31:37.50 661.033 00:11:07 Yes
27 Pleasant Task Farm - PA 0710-AU17-PTF BBWF H 1 09:31:38.90 660.454 00:11:08 Yes
28 Zeke/Michael - IA 1108-AU17-MEM BBWF C 1 09:31:48.70 656.431 00:11:18 Yes
29 Eastern Pearl Loft - VA 0263-AU17-EPL 🈚️量 263 BWF H 2 09:31:52.40 654.924 00:11:22 Yes
30 Nanez Family Lofts - WI 4024-AU17-NFL BB H 2 09:31:54.40 654.113 00:11:24 Yes
31 Marian Taloi - OR 0550-AU17-OTC DCH C 1 09:32:16.60 645.240 00:11:46 Yes
32 G T Family Loft - IL 0003-AU17-GT DKCH H 1 09:32:38.80 636.605 00:12:08 Yes
33 Ej's Loft - CA 0747-AU17-EJ " Maiyan " BWF H 1 09:32:45.90 633.892 00:12:15 Yes
34 Baczynski Loft - IN 6600-AU17-VK BB H 1 09:33:24.80 619.427 00:12:54 Yes
35 O Rodriguez Loft - FL 7704-IF17-SGF DCH H 1 09:33:49.90 610.440 00:13:19 Yes
36 Racine Jun Xiao - WI 0530-AU17-RAC BB H 1 09:33:52.50 609.524 00:13:22 Yes
37 Junior Juanich - CA 0840-AU17-JRL BCH C 1 09:34:06.20 604.742 00:13:35 Yes
38 Southern Belle - GA 0006-AU17-NEA BCH H 1 09:34:40.40 593.125 00:14:10 Yes
39 Paul Byrski - WI 2581-AU17-GW BB H 1 09:35:50.40 570.687 00:15:20 Yes
40 Tank Loft - FL 33586-AU17-ARPU Tank jr BCH C 1 09:36:08.30 565.220 00:15:38 Yes
41 Barbara Byrski - WI 2598-AU17-GW BWF C 1 09:36:10.40 564.585 00:15:40 Yes
42 Genesis Syndicate Loft - AZ 0293-AU17-SYN BCH C 1 09:36:18.60 562.121 00:15:48 Yes
43 Ganus Family Loft - IN 0702-AU17-GFL CHWF H 1 09:36:21.40 561.284 00:15:51 Yes
44 1 Touchdown - NV 34590-AU17-ARPU BB C 1 09:37:06.70 548.087 00:16:36 Yes
45 Malloy Flying Loft - TX 0116-AU17-MALL BB H 1 09:37:15.10 545.708 00:16:44 Yes
46 Prospector Loft/ Krug - IA 0058-AU17-PROS BB C 1 09:37:18.30 544.807 00:16:48 Yes
47 A P C Loft - TX 17384-AU17-APC CHSP H 2 09:37:39.30 538.968 00:17:09 Yes
48 Menyuam Pom Loft - MN 12814-AU17-ARPU BB H 1 09:37:43.90 537.706 00:17:13 Yes
49 America's Dream Loft - IL 0068-AU17-ADL BB C 1 09:37:52.70 535.307 00:17:22 Yes
50 A & H Loft - TN 0066-AU17-ADIL BB C 1 09:37:53.30 535.144 00:17:23 Yes
51 Kelley & Buckner - TX 2128-AU17-KBUC BCH H 1 09:37:54.90 534.711 00:17:24 Yes
52 America Loft - IN 19200-AU17-ARPU BB C 1 09:38:12.50 529.987 00:17:42 Yes
53 Elton Dinga - TX 12048-AU17-AA Klaas BB C 2 09:38:14.10 529.562 00:17:43 Yes
54 Watusi Warriors - CA 71036-AU17-ARPU BB C 1 09:38:21.40 527.631 00:17:51 Yes
55 Orozco's Loft - MI 0021-AU17-OROZ CH H 1 09:38:26.00 526.421 00:17:55 Yes
56 Sunshine Loft 2 - SC 7427-AU17-GRPC Pak-Emerson-111/100 BPEN C 1 09:38:32.30 524.773 00:18:02 Yes
57 Southern Legacy Loft - TX 0401-AU17-SLL BB C 1 09:38:46.10 521.198 00:18:15 Yes
58 America's Dream Loft - IL 0047-AU17-ADL BCH H 2 09:38:50.60 520.043 00:18:20 Yes
59 Vegga Loft - TX 21873-AU17-AA BB H 1 09:38:51.30 519.864 00:18:21 Yes
60 Hi-Cal Connection - CA 0750-AU17-HICA BCWF H 1 09:38:52.80 519.481 00:18:22 Yes
61 Haslem-Stevens - UT 7905-AU17-CDR SLAT C 2 09:39:01.10 517.368 00:18:30 Yes
62 3s Lofts - CA 0227-AU17-VIP SILV H 1 09:39:17.20 513.319 00:18:47 Yes
63 Torres Loft Of Detroit - MI 2072-AU17-BLUE CHOC H 1 09:39:21.40 512.273 00:18:51 Yes
64 Junior Juanich - CA 0838-AU17-JRL BCH C 2 09:39:21.80 512.174 00:18:51 Yes
65 Riedel's L T L - WI 0801-AU17-LTL "Berdy's" Dream Girl ! BB H 1 09:39:26.70 510.960 00:18:56 Yes
66 Watusi Warriors - CA 0219-AU17-JOJO BB C 2 09:39:30.00 510.145 00:18:59 Yes
67 Erp -Duviel Team - GA 0050-AU17-ERP La bala BCWF H 1 09:39:30.60 509.997 00:19:00 Yes
68 Pleasant Task Farm - PA 0713-AU17-PTF BBWF H 2 09:39:33.50 509.284 00:19:03 Yes
69 Genesis Syndicate Loft - AZ 0299-AU17-SYN BSP H 2 09:39:42.80 507.010 00:19:12 Yes
70 Jones Family & Gwp Macaloney - TX 7087-AU17-JFL DCH C 1 09:39:48.90 505.529 00:19:18 Yes
71 Nemelka Racing Pigeon Loft - UT 7057-AU17-NRPL Florian x 1106 BB C 1 09:39:51.50 504.901 00:19:21 Yes
72 Two-Be-Won - NV 17117-AU17-TWOB BSWF C 1 09:40:37.30 494.081 00:20:07 Yes
73 Andy Skwiat - IN 0014-AU17-ANDY BSP C 2 09:41:03.00 488.211 00:20:32 Yes
74 Nemelka Racing Pigeon Loft - UT 7056-AU17-NRPL Poitiers x 5112 BSP H 2 09:41:03.30 488.143 00:20:33 Yes
75 Crooked River Challenge - OR 1035-AU17-CORP BB C 1 09:41:07.70 487.152 00:20:37 Yes
76 Avalos Loft - CA 1602-AU17-TULE PEN H 1 09:41:10.40 486.546 00:20:40 Yes
77 Hi-Cal Connection - CA 0814-AU17-HICA DCH H 2 09:41:16.00 485.294 00:20:45 Yes
78 Genesis Syndicate Loft - AZ 0232-AU17-SYN BCH H 3 09:41:18.30 484.782 00:20:48 Yes
79 Marvel Lofts - MN 26969-AU17-AA Captain America BB C 1 09:41:28.50 482.522 00:20:58 Yes
80 Elton Dinga - TX 12024-AU17-AA Gust Jansen x Sablon BCH H 3 09:41:33.00 481.532 00:21:02 Yes
81 Hmong Syndicate - MN 0333-AU17-ROYA Crazy Hmong/Bl/Cf BB C 1 09:41:34.60 481.181 00:21:04 Yes
82 A-Lin Loft - ME 0940-AU17-NEC BCH C 1 09:41:38.00 480.437 00:21:07 Yes
83 Jordan-Neil-Ricomar-Zerdan-Lito Syn - IL 3067-AU17-FOYS SWEETNESS BB H 1 09:41:40.20 479.956 00:21:10 Yes
84 Father & Son - CA 25218-AU17-ARPU CHWF H 1 09:42:25.80 470.211 00:21:55 Yes
85 Nanez Family Lofts - WI 4020-AU17-NFL BB C 3 09:43:06.80 461.781 00:22:36 Yes
86 Southern Legacy Loft - TX 2102-AU17-GJOJ BB C 2 09:43:33.90 456.372 00:23:03 Yes
87 Andy & Tina Li - CA 8242-AU17-BON BCH H 1 09:43:38.00 455.565 00:23:07 Yes
88 Yendez Loft - TX 0048-AU17-YEND BBWF H 1 09:44:12.60 448.865 00:23:42 Yes
89 Goshentown Lofts - TN 3409-AU17-VK BCWF H 1 09:44:37.10 444.239 00:24:06 Yes
90 Tongol - 11 - NV 0015-AU17-TONG PINANG BB H 1 09:44:44.50 442.860 00:24:14 Yes
91 Baldwin & Tilson - NC 7007-AU17-TENT BWF C 1 09:44:53.90 441.121 00:24:23 Yes
92 Great American Classic - MI 70702-AU17-ARPU BCH C 1 09:44:57.20 440.514 00:24:26 Yes
93 A F L - GA 0163-AU17-AFL ,,SUPRISE'' BWF H 1 09:45:01.00 439.817 00:24:30 Yes
94 H & H Loft - TX 6912-AU17-VK BCH H 2 09:45:19.50 436.454 00:24:49 Yes
95 Medina Loft - TX 0133-AU17-JJME BB H 1 09:45:25.20 435.428 00:24:55 Yes
96 Vladimir 59 Perez - FL 0711-AU17-SUNB BWF H 1 09:45:57.80 429.653 00:25:27 Yes
97 Me Fui Vega Loft - FL 0044-AU17-MEFU BB C 1 09:46:06.70 428.102 00:25:36 Yes
98 Mikey Dads Loft - NY 0034-IF17-MDL Going the distance BB C 1 09:46:07.50 427.964 00:25:37 Yes
99 Chai Suen Siu - MI 1668-AU17-GRM BB H 1 09:46:08.10 427.859 00:25:37 Yes
100 Hutchins/Milner - TX 0028-AU17-HUTC CHSP H 1 09:46:20.30 425.755 00:25:50 Yes

There are 1652 bird records

Note: These Race Results are unofficial and subject to change until verified by the Race Committee and declared final.